QPF
0.02 0.03 0.04 0.05 0.07 0.07 0.04 0.03 0.03 0.03 0.03 0.03 0.04 0.03 0.03 0.03 0.03 0.03 0.03 0.03 0.04 0.03 0.03 0.03 0.04 0.06 0.05 0.03 0.03 0.04 0.04 0.04 0.05 0.03 0.02 0.02 0.02 0.02 0.02 0.03 0.02 0.04 0.03
0.03 0.03 0.03 0.04 0.04 0.04 0.04 0.03 0.03 0.04 0.03 0.02 0.03 0.03 0.03 0.03 0.02 0.02 0.02 0.03 0.04 0.03 0.03 0.03 0.04 0.05 0.05 0.04 0.04 0.03 0.03 0.05 0.06 0.04 0.03 0.02 0.02 0.03 0.03 0.03 0.03 0.03 0.03
0.05 0.03 0.02 0.04 0.05 0.04 0.04 0.04 0.04 0.03 0.03 0.03 0.03 0.03 0.03 0.03 0.02 0.02 0.02 0.02 0.03 0.03 0.03 0.03 0.04 0.05 0.06 0.06 0.05 0.04 0.03 0.03 0.05 0.06 0.04 0.04 0.03 0.03 0.04 0.04 0.04 0.04 0.03
0.06 0.05 0.05 0.05 0.05 0.04 0.04 0.04 0.04 0.03 0.02 0.02 0.03 0.03 0.02 0.03 0.02 0.02 0.02 0.02 0.03 0.04 0.04 0.04 0.04 0.05 0.05 0.05 0.05 0.04 0.04 0.05 0.06 0.06 0.05 0.06 0.05 0.05 0.06 0.05 0.05 0.04 0.03
0.04 0.05 0.05 0.04 0.05 0.05 0.05 0.04 0.04 0.03 0.02 0.03 0.03 0.03 0.02 0.02 0.02 0.02 0.02 0.02 0.03 0.03 0.03 0.03 0.03 0.04 0.04 0.03 0.03 0.03 0.04 0.05 0.05 0.05 0.06 0.06 0.05 0.05 0.04 0.05 0.06 0.05 0.04
0.03 0.03 0.03 0.02 0.02 0.03 0.03 0.04 0.04 0.03 0.04 0.04 0.03 0.03 0.02 0.01 0.01 0.01 0.01 0.02 0.02 0.02 0.03 0.03 0.03 0.03 0.02 0.02 0.02 0.02 0.02 0.03 0.04 0.05 0.05 0.05 0.05 0.07 0.08 0.08 0.07 0.05 0.04
0.02 0.01 0.01 0.02 0.01 0.02 0.02 0.02 0.02 0.03 0.03 0.04 0.03 0.03 0.02 0.01 0.01 0.01 0.01 0.01 0.01 0.02 0.03 0.03 0.01 0.01 0.01 0.02 0.02 0.02 0.02 0.02 0.02 0.03 0.04 0.04 0.04 0.06 0.08 0.07 0.07 0.07 0.05
0.01 0.00 0.01 0.01 0.01 0.01 0.01 0.01 0.01 0.02 0.03 0.03 0.03 0.03 0.03 0.01 0.01 0.01 0.01 0.01 0.01 0.01 0.01 0.01 0.01 0.02 0.01 0.02 0.03 0.02 0.02 0.02 0.02 0.02 0.03 0.03 0.03 0.03 0.04 0.04 0.05 0.06 0.05
0.00 0.00 0.00 0.01 0.01 0.01 0.00 0.01 0.01 0.02 0.02 0.03 0.03 0.03 0.03 0.02 0.02 0.02 0.02 0.01 0.01 0.00 0.00 0.00 0.01 0.02 0.02 0.02 0.02 0.01 0.02 0.03 0.03 0.04 0.03 0.02 0.02 0.03 0.04 0.04 0.04 0.04 0.04
0.00 0.00 0.00 0.00 0.01 0.01 0.01 0.01 0.01 0.01 0.01 0.01 0.01 0.01 0.02 0.02 0.02 0.02 0.02 0.01 0.01 0.00 0.01 0.01 0.01 0.02 0.03 0.02 0.03 0.03 0.03 0.05 0.06 0.05 0.04 0.04 0.03 0.03 0.04 0.04 0.05 0.05 0.04
0.00 0.00 0.00 0.00 0.01 0.01 0.01 0.01 0.02 0.01 0.01 0.01 0.01 0.01 0.01 0.01 0.02 0.02 0.02 0.01 0.01 0.01 0.01 0.01 0.01 0.02 0.02 0.02 0.03 0.03 0.04 0.05 0.05 0.05 0.05 0.04 0.02 0.02 0.02 0.02 0.03 0.04 0.04
0.00 0.00 0.00 0.00 0.01 0.01 0.02 0.02 0.02 0.02 0.02 0.02 0.02 0.02 0.01 0.01 0.01 0.01 0.02 0.02 0.01 0.02 0.02 0.01 0.01 0.02 0.02 0.02 0.02 0.02 0.02 0.02 0.03 0.04 0.04 0.04 0.03 0.03 0.02 0.02 0.02 0.03 0.04
0.00 0.00 0.00 0.00 0.00 0.01 0.01 0.02 0.02 0.02 0.02 0.02 0.02 0.02 0.02 0.02 0.02 0.02 0.03 0.03 0.02 0.02 0.01 0.02 0.03 0.03 0.03 0.03 0.03 0.02 0.02 0.02 0.03 0.04 0.04 0.03 0.03 0.03 0.03 0.03 0.04 0.06 0.05
0.01 0.01 0.01 0.01 0.01 0.01 0.01 0.01 0.02 0.02 0.03 0.03 0.03 0.02 0.02 0.02 0.02 0.03 0.03 0.02 0.03 0.02 0.02 0.02 0.03 0.03 0.03 0.02 0.03 0.03 0.03 0.03 0.03 0.03 0.03 0.02 0.03 0.04 0.05 0.05 0.06 0.06 0.05
0.01 0.01 0.01 0.01 0.01 0.02 0.02 0.02 0.03 0.03 0.04 0.05 0.04 0.03 0.02 0.02 0.02 0.03 0.03 0.03 0.03 0.02 0.02 0.02 0.03 0.03 0.03 0.04 0.04 0.04 0.03 0.03 0.02 0.02 0.02 0.02 0.02 0.04 0.05 0.04 0.04 0.05 0.03
0.04 0.04 0.04 0.05 0.05 0.05 0.06 0.06 0.05 0.04 0.04 0.03 0.03 0.02 0.02 0.01 0.02 0.03 0.03 0.04 0.04 0.03 0.03 0.02 0.04 0.05 0.04 0.05 0.06 0.06 0.04 0.02 0.02 0.02 0.02 0.02 0.02 0.04 0.05 0.05 0.04 0.04 0.04
0.05 0.05 0.05 0.06 0.06 0.06 0.06 0.05 0.04 0.03 0.03 0.02 0.02 0.01 0.01 0.01 0.01 0.02 0.03 0.03 0.03 0.04 0.04 0.03 0.05 0.06 0.06 0.06 0.06 0.06 0.05 0.03 0.03 0.03 0.03 0.03 0.03 0.03 0.03 0.03 0.03 0.03 0.04
0.04 0.04 0.05 0.05 0.04 0.03 0.03 0.04 0.03 0.03 0.03 0.02 0.01 0.01 0.01 0.01 0.02 0.02 0.02 0.02 0.03 0.03 0.03 0.05 0.07 0.08 0.08 0.08 0.08 0.07 0.06 0.05 0.04 0.03 0.03 0.03 0.03 0.02 0.02 0.02 0.03 0.03 0.03
0.03 0.03 0.02 0.03 0.02 0.01 0.02 0.02 0.02 0.02 0.02 0.01 0.01 0.01 0.01 0.01 0.01 0.01 0.02 0.02 0.02 0.03 0.03 0.05 0.07 0.07 0.07 0.06 0.06 0.05 0.06 0.06 0.06 0.07 0.06 0.05 0.03 0.03 0.03 0.03 0.04 0.04 0.04
0.05 0.04 0.02 0.01 0.01 0.01 0.02 0.02 0.02 0.02 0.02 0.02 0.03 0.03 0.03 0.02 0.01 0.01 0.01 0.01 0.02 0.03 0.04 0.04 0.04 0.04 0.05 0.05 0.05 0.04 0.03 0.03 0.03 0.04 0.04 0.03 0.03 0.04 0.04 0.04 0.04 0.04 0.04
0.05 0.05 0.04 0.02 0.01 0.01 0.01 0.02 0.02 0.04 0.04 0.04 0.04 0.04 0.03 0.02 0.01 0.01 0.00 0.01 0.01 0.01 0.02 0.03 0.04 0.03 0.02 0.03 0.04 0.04 0.03 0.03 0.03 0.03 0.03 0.03 0.04 0.05 0.05 0.05 0.04 0.04 0.04
0.03 0.05 0.06 0.04 0.03 0.02 0.02 0.02 0.02 0.03 0.03 0.03 0.04 0.04 0.03 0.02 0.01 0.01 0.02 0.02 0.02 0.02 0.02 0.02 0.03 0.03 0.03 0.02 0.03 0.04 0.05 0.04 0.05 0.05 0.05 0.05 0.05 0.06 0.06 0.06 0.06 0.05 0.04
0.03 0.04 0.04 0.05 0.05 0.04 0.04 0.03 0.03 0.03 0.02 0.02 0.01 0.01 0.02 0.02 0.03 0.03 0.03 0.04 0.04 0.04 0.04 0.03 0.04 0.03 0.02 0.02 0.02 0.03 0.04 0.03 0.03 0.03 0.04 0.05 0.05 0.05 0.05 0.07 0.06 0.05 0.04
0.03 0.04 0.04 0.04 0.05 0.06 0.06 0.05 0.04 0.03 0.03 0.02 0.01 0.02 0.03 0.03 0.03 0.03 0.03 0.03 0.04 0.04 0.05 0.05 0.04 0.03 0.03 0.02 0.02 0.02 0.02 0.02 0.02 0.02 0.02 0.03 0.04 0.05 0.06 0.06 0.06 0.04 0.04
0.02 0.03 0.04 0.04 0.04 0.05 0.05 0.04 0.05 0.05 0.04 0.04 0.03 0.04 0.04 0.04 0.03 0.03 0.03 0.03 0.04 0.03 0.04 0.05 0.05 0.04 0.04 0.03 0.03 0.02 0.03 0.03 0.03 0.03 0.02 0.02 0.03 0.04 0.05 0.05 0.05 0.05 0.04
0.02 0.02 0.02 0.02 0.03 0.03 0.03 0.04 0.05 0.05 0.06 0.06 0.06 0.05 0.04 0.04 0.04 0.03 0.03 0.03 0.04 0.04 0.04 0.05 0.06 0.05 0.04 0.04 0.04 0.04 0.04 0.04 0.04 0.03 0.04 0.03 0.03 0.03 0.03 0.03 0.04 0.04 0.03
MSLP
1012.22 1012.46 1012.64 1012.73 1012.74 1012.66 1012.52 1012.36 1012.21 1012.09 1012.00 1011.94 1011.89 1011.81 1011.68 1011.47 1011.17 1010.81 1010.41 1010.00 1009.62 1009.31 1009.08 1008.93 1008.85 1008.79 1008.73 1008.60 1008.39 1008.07 1007.64 1007.11 1006.49 1005.83 1005.15 1004.50 1003.91 1003.40 1003.02 1002.78 1002.70 1002.80 1003.08
1012.37 1012.59 1012.74 1012.82 1012.82 1012.76 1012.67 1012.56 1012.46 1012.38 1012.34 1012.31 1012.26 1012.18 1012.04 1011.82 1011.51 1011.13 1010.71 1010.28 1009.88 1009.54 1009.27 1009.07 1008.93 1008.82 1008.70 1008.55 1008.32 1008.01 1007.61 1007.12 1006.57 1005.96 1005.34 1004.72 1004.14 1003.63 1003.21 1002.92 1002.79 1002.82 1003.04
1012.59 1012.79 1012.94 1013.01 1013.02 1012.98 1012.91 1012.84 1012.78 1012.74 1012.71 1012.70 1012.66 1012.57 1012.42 1012.18 1011.87 1011.49 1011.06 1010.63 1010.21 1009.84 1009.52 1009.26 1009.04 1008.84 1008.64 1008.41 1008.13 1007.79 1007.39 1006.94 1006.43 1005.90 1005.35 1004.80 1004.28 1003.80 1003.41 1003.12 1002.97 1002.98 1003.16
1012.86 1013.06 1013.20 1013.27 1013.29 1013.26 1013.21 1013.15 1013.11 1013.08 1013.06 1013.04 1012.99 1012.89 1012.72 1012.48 1012.17 1011.80 1011.38 1010.95 1010.53 1010.13 1009.77 1009.44 1009.12 1008.82 1008.51 1008.18 1007.82 1007.43 1007.01 1006.57 1006.11 1005.64 1005.18 1004.72 1004.29 1003.89 1003.56 1003.31 1003.18 1003.19 1003.37
1013.13 1013.34 1013.49 1013.56 1013.58 1013.55 1013.50 1013.44 1013.39 1013.35 1013.31 1013.27 1013.19 1013.07 1012.89 1012.65 1012.34 1011.98 1011.59 1011.18 1010.76 1010.35 1009.95 1009.55 1009.15 1008.74 1008.32 1007.88 1007.42 1006.96 1006.51 1006.07 1005.64 1005.24 1004.87 1004.51 1004.18 1003.88 1003.63 1003.45 1003.36 1003.40 1003.58
1013.36 1013.60 1013.75 1013.83 1013.83 1013.79 1013.73 1013.65 1013.57 1013.50 1013.43 1013.34 1013.23 1013.08 1012.89 1012.64 1012.34 1012.01 1011.65 1011.26 1010.86 1010.45 1010.03 1009.58 1009.11 1008.60 1008.07 1007.53 1006.99 1006.46 1005.96 1005.51 1005.12 1004.77 1004.48 1004.22 1003.98 1003.78 1003.62 1003.50 1003.47 1003.54 1003.74
1013.55 1013.81 1013.96 1014.02 1014.02 1013.96 1013.86 1013.75 1013.64 1013.53 1013.41 1013.28 1013.13 1012.95 1012.74 1012.49 1012.20 1011.89 1011.56 1011.21 1010.83 1010.43 1009.99 1009.52 1008.99 1008.42 1007.81 1007.19 1006.57 1005.99 1005.46 1005.01 1004.63 1004.33 1004.09 1003.91 1003.76 1003.63 1003.54 1003.48 1003.49 1003.58 1003.79
1013.70 1013.95 1014.10 1014.15 1014.12 1014.03 1013.91 1013.77 1013.63 1013.48 1013.32 1013.16 1012.97 1012.76 1012.53 1012.27 1011.99 1011.70 1011.39 1011.07 1010.71 1010.33 1009.89 1009.40 1008.84 1008.23 1007.57 1006.90 1006.24 1005.63 1005.08 1004.63 1004.27 1004.00 1003.81 1003.67 1003.58 1003.50 1003.45 1003.43 1003.45 1003.55 1003.76
1013.81 1014.05 1014.18 1014.21 1014.16 1014.05 1013.91 1013.75 1013.59 1013.41 1013.23 1013.04 1012.84 1012.61 1012.36 1012.10 1011.83 1011.54 1011.24 1010.93 1010.59 1010.21 1009.77 1009.27 1008.70 1008.08 1007.41 1006.72 1006.05 1005.43 1004.89 1004.45 1004.10 1003.86 1003.70 1003.59 1003.52 1003.47 1003.43 1003.41 1003.43 1003.52 1003.71
1013.90 1014.11 1014.21 1014.22 1014.15 1014.04 1013.89 1013.73 1013.57 1013.40 1013.22 1013.03 1012.81 1012.58 1012.33 1012.06 1011.78 1011.49 1011.19 1010.87 1010.52 1010.14 1009.70 1009.19 1008.62 1008.00 1007.33 1006.66 1006.00 1005.41 1004.89 1004.48 1004.16 1003.95 1003.80 1003.71 1003.65 1003.59 1003.55 1003.51 1003.50 1003.56 1003.71
1013.95 1014.12 1014.20 1014.19 1014.11 1014.00 1013.87 1013.74 1013.60 1013.45 1013.30 1013.13 1012.94 1012.72 1012.47 1012.20 1011.91 1011.60 1011.27 1010.93 1010.56 1010.15 1009.69 1009.17 1008.60 1007.99 1007.35 1006.71 1006.09 1005.54 1005.07 1004.70 1004.42 1004.24 1004.11 1004.03 1003.97 1003.90 1003.83 1003.77 1003.73 1003.75 1003.86
1013.94 1014.07 1014.11 1014.09 1014.02 1013.93 1013.83 1013.74 1013.65 1013.56 1013.46 1013.34 1013.18 1012.99 1012.75 1012.48 1012.18 1011.84 1011.48 1011.10 1010.69 1010.24 1009.75 1009.22 1008.64 1008.04 1007.43 1006.83 1006.27 1005.78 1005.37 1005.05 1004.83 1004.68 1004.58 1004.52 1004.46 1004.39 1004.30 1004.22 1004.14 1004.12 1004.19
1013.83 1013.91 1013.93 1013.90 1013.84 1013.78 1013.73 1013.69 1013.67 1013.65 1013.62 1013.56 1013.45 1013.30 1013.09 1012.82 1012.51 1012.15 1011.76 1011.33 1010.87 1010.37 1009.85 1009.29 1008.71 1008.12 1007.54 1006.99 1006.49 1006.06 1005.72 1005.47 1005.30 1005.20 1005.14 1005.10 1005.06 1005.00 1004.92 1004.82 1004.74 1004.70 1004.74
1013.58 1013.62 1013.61 1013.57 1013.54 1013.51 1013.51 1013.54 1013.59 1013.64 1013.68 1013.69 1013.65 1013.54 1013.36 1013.12 1012.81 1012.44 1012.01 1011.55 1011.04 1010.50 1009.95 1009.37 1008.78 1008.21 1007.66 1007.15 1006.71 1006.34 1006.07 1005.88 1005.78 1005.73 1005.71 1005.72 1005.71 1005.67 1005.61 1005.54 1005.46 1005.42 1005.45
1013.16 1013.17 1013.15 1013.11 1013.09 1013.10 1013.15 1013.23 1013.34 1013.46 1013.57 1013.64 1013.66 1013.61 1013.47 1013.26 1012.96 1012.59 1012.16 1011.68 1011.15 1010.59 1010.01 1009.42 1008.84 1008.28 1007.76 1007.30 1006.91 1006.60 1006.39 1006.26 1006.20 1006.20 1006.24 1006.29 1006.32 1006.33 1006.32 1006.28 1006.25 1006.24 1006.28
1012.60 1012.59 1012.56 1012.54 1012.53 1012.57 1012.65 1012.77 1012.92 1013.09 1013.24 1013.37 1013.44 1013.44 1013.35 1013.18 1012.92 1012.57 1012.16 1011.68 1011.16 1010.60 1010.03 1009.45 1008.89 1008.36 1007.87 1007.45 1007.10 1006.85 1006.68 1006.59 1006.57 1006.61 1006.69 1006.77 1006.85 1006.92 1006.96 1006.98 1007.01 1007.05 1007.14
1011.95 1011.94 1011.92 1011.90 1011.91 1011.97 1012.06 1012.20 1012.37 1012.56 1012.74 1012.89 1013.00 1013.04 1013.01 1012.88 1012.67 1012.37 1012.00 1011.57 1011.08 1010.56 1010.02 1009.48 1008.96 1008.46 1008.02 1007.64 1007.33 1007.11 1006.96 1006.90 1006.90 1006.96 1007.05 1007.16 1007.28 1007.39 1007.49 1007.58 1007.68 1007.79 1007.94
1011.30 1011.30 1011.30 1011.29 1011.31 1011.37 1011.46 1011.59 1011.76 1011.94 1012.12 1012.29 1012.42 1012.49 1012.49 1012.42 1012.26 1012.03 1011.72 1011.35 1010.93 1010.48 1010.01 1009.53 1009.06 1008.63 1008.23 1007.90 1007.62 1007.42 1007.29 1007.23 1007.22 1007.27 1007.36 1007.47 1007.60 1007.74 1007.89 1008.04 1008.21 1008.40 1008.63
1010.71 1010.74 1010.76 1010.77 1010.80 1010.85 1010.92 1011.03 1011.17 1011.33 1011.49 1011.64 1011.77 1011.86 1011.89 1011.86 1011.76 1011.60 1011.37 1011.08 1010.75 1010.38 1010.00 1009.61 1009.22 1008.86 1008.53 1008.24 1007.99 1007.81 1007.67 1007.59 1007.56 1007.58 1007.63 1007.72 1007.84 1007.98 1008.15 1008.35 1008.58 1008.84 1009.15
1010.21 1010.28 1010.33 1010.36 1010.39 1010.43 1010.49 1010.56 1010.66 1010.77 1010.90 1011.02 1011.14 1011.22 1011.28 1011.28 1011.23 1011.14 1010.98 1010.79 1010.55 1010.28 1010.00 1009.70 1009.41 1009.13 1008.87 1008.63 1008.42 1008.25 1008.11 1008.00 1007.92 1007.89 1007.88 1007.92 1008.00 1008.12 1008.29 1008.51 1008.79 1009.11 1009.49
1009.79 1009.90 1009.99 1010.04 1010.08 1010.11 1010.14 1010.18 1010.23 1010.30 1010.39 1010.47 1010.56 1010.64 1010.69 1010.72 1010.71 1010.67 1010.59 1010.47 1010.32 1010.16 1009.97 1009.78 1009.59 1009.40 1009.21 1009.04 1008.87 1008.71 1008.55 1008.41 1008.29 1008.19 1008.12 1008.08 1008.10 1008.18 1008.33 1008.55 1008.84 1009.21 1009.64
1009.39 1009.55 1009.66 1009.74 1009.79 1009.81 1009.82 1009.83 1009.85 1009.88 1009.92 1009.97 1010.03 1010.09 1010.14 1010.18 1010.20 1010.20 1010.17 1010.12 1010.06 1009.98 1009.89 1009.80 1009.71 1009.61 1009.50 1009.39 1009.26 1009.12 1008.96 1008.80 1008.62 1008.46 1008.31 1008.20 1008.15 1008.16 1008.27 1008.46 1008.76 1009.14 1009.61
1008.91 1009.10 1009.25 1009.35 1009.41 1009.44 1009.44 1009.43 1009.43 1009.43 1009.44 1009.47 1009.50 1009.55 1009.59 1009.64 1009.67 1009.69 1009.70 1009.71 1009.71 1009.71 1009.71 1009.70 1009.70 1009.69 1009.67 1009.62 1009.55 1009.43 1009.28 1009.10 1008.89 1008.66 1008.44 1008.26 1008.13 1008.07 1008.12 1008.28 1008.55 1008.93 1009.42
1008.28 1008.50 1008.67 1008.79 1008.86 1008.90 1008.90 1008.90 1008.88 1008.88 1008.88 1008.89 1008.92 1008.96 1009.00 1009.05 1009.09 1009.13 1009.17 1009.22 1009.27 1009.33 1009.40 1009.47 1009.55 1009.63 1009.68 1009.70 1009.68 1009.61 1009.48 1009.29 1009.05 1008.78 1008.51 1008.25 1008.05 1007.92 1007.91 1008.01 1008.25 1008.62 1009.10
1007.47 1007.70 1007.88 1008.02 1008.11 1008.16 1008.18 1008.19 1008.19 1008.19 1008.20 1008.22 1008.25 1008.29 1008.34 1008.39 1008.45 1008.51 1008.57 1008.65 1008.74 1008.85 1008.98 1009.12 1009.27 1009.42 1009.55 1009.64 1009.68 1009.65 1009.54 1009.36 1009.12 1008.82 1008.50 1008.19 1007.92 1007.73 1007.65 1007.70 1007.89 1008.22 1008.68
1006.50 1006.74 1006.94 1007.09 1007.20 1007.27 1007.31 1007.34 1007.37 1007.39 1007.42 1007.46 1007.51 1007.57 1007.63 1007.69 1007.76 1007.84 1007.93 1008.03 1008.15 1008.31 1008.48 1008.68 1008.90 1009.11 1009.31 1009.46 1009.56 1009.58 1009.51 1009.35 1009.10 1008.79 1008.44 1008.08 1007.76 1007.52 1007.38 1007.36 1007.50 1007.78 1008.21
Thickness
5797 5794 5792 5790 5788 5785 5782 5779 5778 5775 5773 5770 5767 5765 5762 5759 5757 5754 5751 5750 5747 5745 5743 5741 5739 5739 5737 5736 5735 5733 5730 5727 5719 5721 5723 5723 5722 5720 5717 5715 5713 5711 5707
5797 5794 5791 5788 5786 5783 5780 5779 5777 5774 5771 5769 5766 5763 5760 5757 5755 5752 5748 5746 5744 5741 5739 5737 5736 5735 5732 5730 5729 5727 5725 5724 5718 5714 5715 5716 5715 5715 5713 5711 5710 5708 5705
5795 5792 5789 5786 5784 5781 5778 5777 5775 5772 5769 5767 5764 5760 5757 5755 5752 5749 5746 5743 5741 5739 5736 5733 5732 5729 5726 5725 5724 5722 5721 5720 5716 5711 5710 5711 5710 5710 5707 5707 5706 5704 5702
5792 5789 5785 5783 5781 5779 5777 5774 5772 5770 5767 5764 5761 5758 5756 5752 5749 5746 5744 5740 5738 5735 5733 5731 5728 5725 5723 5721 5719 5717 5716 5713 5711 5707 5705 5704 5704 5704 5702 5698 5697 5697 5696
5789 5785 5782 5782 5779 5776 5774 5771 5769 5766 5764 5761 5758 5755 5753 5750 5746 5743 5739 5738 5734 5731 5729 5727 5724 5722 5719 5716 5715 5712 5710 5707 5705 5702 5700 5698 5697 5695 5693 5693 5691 5690 5690
5784 5781 5779 5777 5774 5771 5769 5766 5764 5761 5759 5757 5754 5751 5748 5747 5744 5740 5736 5734 5731 5728 5724 5722 5720 5718 5715 5712 5710 5708 5705 5702 5699 5696 5694 5691 5690 5690 5689 5687 5684 5683 5681
5780 5777 5775 5772 5768 5766 5764 5761 5758 5756 5753 5750 5749 5746 5744 5741 5738 5736 5732 5730 5727 5724 5722 5719 5717 5716 5712 5709 5706 5704 5701 5699 5696 5692 5689 5687 5686 5686 5683 5681 5679 5677 5675
5774 5772 5769 5766 5763 5761 5759 5756 5753 5751 5748 5745 5744 5742 5739 5736 5733 5730 5727 5725 5723 5720 5718 5715 5711 5708 5706 5703 5701 5699 5697 5695 5692 5689 5687 5686 5685 5683 5680 5677 5675 5674 5673
5768 5765 5764 5761 5758 5755 5752 5750 5748 5745 5743 5741 5739 5737 5734 5731 5728 5725 5722 5720 5717 5715 5713 5710 5707 5704 5701 5697 5695 5692 5691 5689 5688 5686 5684 5682 5680 5678 5676 5672 5670 5667 5665
5762 5760 5759 5756 5753 5750 5747 5745 5743 5741 5738 5736 5734 5732 5730 5726 5722 5719 5715 5713 5711 5709 5707 5705 5702 5699 5695 5692 5688 5686 5683 5682 5682 5681 5678 5676 5675 5673 5671 5668 5665 5661 5660
5758 5754 5751 5749 5747 5744 5742 5740 5737 5735 5732 5729 5727 5726 5724 5721 5717 5713 5709 5706 5705 5703 5702 5700 5698 5694 5690 5686 5682 5680 5678 5676 5675 5674 5673 5671 5670 5668 5666 5664 5661 5658 5654
5750 5746 5744 5742 5740 5739 5735 5732 5730 5728 5724 5721 5719 5718 5718 5716 5713 5708 5704 5700 5698 5696 5695 5694 5692 5688 5684 5680 5677 5676 5674 5671 5670 5668 5667 5666 5664 5662 5661 5660 5658 5655 5653
5741 5738 5736 5734 5732 5730 5728 5725 5722 5720 5718 5715 5713 5711 5710 5709 5706 5702 5698 5695 5691 5689 5689 5687 5684 5680 5677 5675 5672 5670 5668 5666 5665 5663 5662 5662 5661 5660 5658 5656 5654 5652 5649
5731 5729 5727 5724 5723 5721 5720 5718 5715 5713 5711 5708 5706 5704 5702 5701 5698 5695 5692 5688 5684 5681 5679 5678 5676 5673 5671 5669 5668 5666 5664 5663 5661 5659 5659 5659 5658 5656 5652 5651 5648 5646 5642
5721 5719 5718 5716 5715 5712 5711 5709 5708 5705 5704 5700 5699 5697 5694 5691 5688 5684 5681 5680 5678 5674 5672 5671 5670 5667 5666 5665 5664 5663 5661 5659 5657 5655 5654 5653 5651 5650 5648 5646 5643 5641 5637
5710 5709 5709 5708 5706 5705 5703 5701 5700 5698 5696 5695 5692 5688 5686 5683 5680 5677 5673 5671 5669 5666 5664 5665 5664 5662 5661 5660 5658 5657 5656 5654 5652 5651 5649 5646 5645 5644 5642 5640 5638 5634 5631
5702 5701 5700 5699 5698 5697 5695 5693 5691 5689 5687 5685 5682 5680 5677 5674 5672 5669 5666 5663 5661 5658 5658 5659 5658 5657 5656 5654 5653 5651 5650 5649 5647 5645 5642 5640 5640 5638 5636 5634 5632 5629 5627
5695 5695 5693 5692 5691 5691 5689 5688 5686 5683 5679 5677 5675 5671 5668 5665 5663 5660 5657 5654 5654 5653 5653 5653 5652 5651 5650 5648 5647 5646 5645 5643 5641 5638 5637 5635 5634 5633 5631 5629 5626 5624 5622
5688 5687 5687 5685 5685 5685 5684 5682 5680 5677 5674 5672 5668 5663 5658 5655 5652 5650 5648 5648 5649 5649 5648 5647 5646 5645 5644 5643 5642 5640 5639 5637 5635 5633 5631 5630 5629 5628 5625 5624 5621 5619 5616
5680 5679 5678 5678 5678 5677 5676 5674 5671 5668 5665 5663 5661 5658 5653 5648 5646 5645 5642 5643 5644 5643 5643 5642 5641 5639 5639 5637 5636 5634 5633 5631 5629 5628 5626 5625 5624 5622 5619 5618 5617 5614 5612
5674 5674 5671 5670 5669 5668 5666 5664 5662 5659 5656 5654 5652 5651 5646 5644 5643 5642 5641 5640 5638 5637 5636 5635 5635 5633 5633 5632 5630 5629 5628 5627 5625 5623 5621 5620 5618 5616 5614 5613 5611 5609 5608
5666 5666 5665 5663 5661 5659 5657 5655 5653 5651 5648 5646 5645 5643 5638 5638 5638 5637 5636 5635 5634 5633 5632 5630 5629 5628 5627 5626 5625 5624 5623 5621 5619 5618 5616 5615 5612 5610 5609 5606 5605 5603 5602
5656 5656 5655 5654 5652 5649 5648 5648 5646 5644 5643 5641 5640 5637 5634 5634 5634 5632 5630 5629 5627 5627 5627 5625 5624 5622 5622 5621 5620 5618 5616 5614 5612 5611 5609 5608 5606 5604 5602 5600 5599 5598 5596
5648 5647 5646 5644 5643 5642 5640 5639 5638 5637 5637 5636 5634 5632 5630 5629 5628 5627 5625 5623 5622 5620 5619 5618 5617 5616 5615 5614 5613 5611 5609 5607 5606 5605 5603 5601 5600 5598 5597 5595 5594 5593 5591
5640 5639 5637 5635 5634 5633 5632 5631 5631 5630 5629 5628 5627 5626 5625 5623 5622 5621 5620 5618 5616 5614 5612 5611 5610 5608 5607 5606 5604 5603 5602 5600 5599 5597 5596 5595 5594 5593 5592 5591 5589 5588 5586
5633 5631 5630 5628 5626 5625 5625 5624 5623 5622 5621 5621 5620 5619 5618 5616 5615 5614 5613 5611 5609 5608 5606 5604 5603 5601 5600 5599 5598 5596 5595 5593 5592 5591 5590 5589 5588 5587 5586 5585 5584 5582 5581